Location: Pedimozza
(42.0500°N, 9.3500°E)
Time: 13:25:54
(UTC+00:00)

S3M - Pass Details

Date: 19 August 2019
Orbit: 948 x 1005 km, 83.0° (Epoch: 21 September)

Event Time Altitude Azimuth Distance (km) Brightness Sun altitude
Exits shadow 19:28:19 - 159° (SSE) 2,888 6.0 -12.8°
Reaches altitude 10° 19:28:42 10° 158° (SSE) 2,750 5.9 -12.8°
Maximum altitude 19:34:34 42° 89° (E) 1,376 4.4 -13.8°
Drops below altitude 10° 19:40:23 10° 21° (NNE) 2,731 6.5 -14.7°
Sets 19:43:00 0° 15° (NNE) 3,674 7.3 -15.1°
